Location: Assions
(44.4186°N, 4.1749°E)
Time: 09:30:42
(UTC+00:00)

Daily predictions for brighter satellites

Satellite Brightness Start Highest point End
(mag) Time Altitude Azimuth Time Altitude Azimuth Time Altitude Azimuth
NOSS 3-1 (A) 4.4 18:25:11 10° NW 18:32:49 78° SW 18:41:31 10° SSE
Cosmos 1980 3.8 18:31:09 10° SSW 18:36:50 86° ESE 18:42:34 10° NNE
Cosmos 1943 Rocket 3.8 18:33:18 10° N 18:36:55 17° NE 18:40:33 10° E
CZ-2D R/B 3.9 18:33:35 10° S 18:37:22 61° W 18:41:09 10° NNW
Cosmos 1766 3.4 18:33:30 10° S 18:37:23 53° E 18:41:17 10° NNE
STARLINK-1091 4.3 18:33:38 10° NW 18:37:30 42° NNE 18:41:22 10° E
S3M 4.1 18:32:56 10° S 18:39:12 63° E 18:45:31 10° NNE
Ariane Rocket 3.2 18:36:27 10° SE 18:41:21 51° ENE 18:46:16 10° N
YAOGAN 1 3.5 18:37:18 10° S 18:41:31 53° W 18:45:46 10° NNW
STARLINK-1224 3.7 18:37:51 10° SW 18:41:47 55° SE 18:45:44 10° ENE
BREEZE-M DEB (TANK) 3.7 18:28:41 10° WNW 18:43:32 76° SSW 18:47:03 10° SE
Cosmos 1386 Rocket 4.4 18:38:13 10° N 18:44:15 63° E 18:50:11 10° SSE
Cosmos 1455 Rocket 3.3 18:40:15 10° SSE 18:44:21 44° E 18:48:30 10° NNE
SL-08 ROCKET BODY 4.5 18:38:21 10° N 18:44:27 63° E 18:50:25 10° SSE
STARLINK-1225 3.6 18:42:30 10° SW 18:46:28 60° SE 18:50:27 10° ENE
Cosmos 1110 Rocket 4.0 18:42:48 10° NNW 18:48:02 65° ENE 18:53:12 10° SSE
STARLINK-1203 3.5 18:44:30 10° SW 18:48:24 68° SE 18:52:20 10° ENE
Cosmos 332 Rocket 3.9 18:44:21 10° NNW 18:49:16 88° WSW 18:54:12 10° SSE
SL-16 R/B 2.6 18:45:12 10° S 18:50:24 39° ESE 18:55:37 10° NE
STARLINK-1072 4.0 18:46:49 10° NW 18:50:42 49° NNE 18:54:14 12° ESE
Cosmos 2333 Rocket 4.2 18:45:53 10° WSW 18:50:56 32° NW 18:55:58 10° N
STARLINK-1230 3.5 18:47:06 10° SW 18:51:06 66° SE 18:55:06 10° ENE
Cosmos 1892 Rocket 3.6 18:47:23 10° N 18:51:53 74° E 18:56:21 10° SSE
USA 186 2.4 18:50:32 10° SE 18:53:46 40° ENE 18:56:58 10° N
CSL-04 Rocket 4.4 18:49:01 10° S 18:54:14 55° W 18:59:26 10° NNW
STARLINK-1234 3.6 18:51:33 10° WSW 18:54:29 51° NNW 18:57:25 10° NE
Cosmos 1953 4.1 18:53:53 12° E 18:54:35 12° E 18:56:12 10° ENE
ARGOS Delta rocket 4.1 18:49:44 10° SSE 18:54:45 66° ENE 19:00:03 10° N
STARLINK-1096 3.9 18:51:15 10° NW 18:55:11 52° NNE 18:58:31 14° ESE
STARLINK-1243 3.5 18:51:46 10° SW 18:55:47 71° SE 18:59:48 10° ENE
Cosmos 1626 2.7 18:52:55 10° N 18:56:22 35° ENE 18:59:47 10° SE
STARLINK-1079 3.8 18:55:44 10° NW 18:59:40 56° NNE 19:02:49 15° ESE
Okean 1-7 Rocket 3.5 18:55:23 10° N 18:59:48 77° E 19:04:11 10° SSE
STARLINK-1236 3.5 18:56:25 10° SW 19:00:26 77° SE 19:04:28 10° ENE
STARLINK-1116 3.7 19:00:11 10° NW 19:04:10 59° NNE 19:07:08 17° ESE
SJ-11-01 4.3 18:59:55 10° SSE 19:04:36 88° WSW 19:09:21 10° NNW
H-2A R/B 2.1 19:00:19 10° SSE 19:05:37 70° ENE 19:10:48 10° N
Cosmos 883 Rocket 4.5 19:03:19 10° S 19:09:25 65° E 19:15:37 10° NNE
STARLINK-1269 3.5 19:05:48 10° SW 19:09:50 89° S 19:13:54 10° ENE
STARLINK-1118 3.5 19:08:11 10° WNW 19:10:11 30° SW 19:11:31 16° SSE
Cosmos 1544 Rocket 3.5 19:07:25 10° S 19:11:45 66° E 19:16:09 10° NNE
STARLINK-1094 3.6 19:09:09 10° NW 19:13:09 68° NNE 19:15:46 21° ESE
Cosmos 1745 Rocket 4.3 19:07:39 10° NNW 19:13:57 72° W 19:20:09 10° S
STARLINK-1200 3.6 19:10:30 10° WSW 19:14:32 85° NNW 19:18:36 10° NE
Cosmos 2297 3.7 19:10:06 10° NNW 19:15:47 67° ENE 19:20:56 13° SE
USA 234 3.3 19:09:41 10° NE 19:16:11 63° SE 19:22:39 10° SW
CZ-2C R/B 4.1 19:12:06 10° NNE 19:16:37 42° E 19:21:03 10° S
STARLINK-1117 3.5 19:13:40 10° NW 19:17:41 73° NNE 19:20:07 23° ESE
STARLINK-1192 3.6 19:15:08 10° WSW 19:19:11 79° NNW 19:23:15 10° NE
Meteor 2-5 Rocket 4.4 19:13:45 10° NNW 19:19:19 58° W 19:24:44 10° S
Cosmos 2237 Rocket 3.3 19:15:14 10° SW 19:20:38 48° WNW 19:26:06 10° NNE
ADEOS Rocket 4.5 19:14:57 10° N 19:21:20 43° WNW 19:27:07 10° SW
STARLINK-1078 3.5 19:18:09 10° NW 19:22:11 78° NNE 19:24:26 25° ESE
STARLINK-1244 3.7 19:19:57 10° WSW 19:23:59 74° NNW 19:28:01 10° NE
STARLINK-1201 4.1 19:21:20 10° W 19:24:27 42° NNW 19:27:30 11° NE
Cosmos 1302 Rocket 4.0 19:20:20 10° NNW 19:25:35 65° ENE 19:29:43 17° SSE
STARLINK-1108 3.5 19:22:40 10° NW 19:26:43 83° NE 19:28:47 27° ESE
Cosmos 2278 Rocket 4.0 19:22:51 10° NW 19:27:45 31° WSW 19:32:37 10° SSW
Cosmos 1269 Rocket 4.1 19:22:33 10° SSW 19:27:51 85° WNW 19:33:11 10° NNE
CZ-2C R/B 3.1 19:23:58 10° NNE 19:28:39 33° E 19:32:38 13° SSE
STARLINK-1138 3.8 19:24:39 10° WSW 19:28:41 69° NNW 19:32:32 11° NE
STARLINK-1066 3.3 19:27:59 10° WNW 19:31:05 56° SW 19:32:18 31° SSE
STARLINK-1071 3.5 19:27:11 10° NW 19:31:14 89° NE 19:33:08 30° SE
STARLINK-1081 3.3 19:28:26 10° WNW 19:31:31 55° SW 19:32:41 32° SSE
STARLINK-1070 3.3 19:28:54 10° WNW 19:31:58 55° SW 19:33:06 32° SSE
STARLINK-1124 3.5 19:28:05 10° WNW 19:32:15 90° SW 19:34:14 30° SE
STARLINK-1069 3.3 19:29:18 10° WNW 19:32:24 54° SW 19:33:34 32° SSE
STARLINK-1085 3.3 19:29:45 10° WNW 19:32:51 54° SW 19:34:00 32° SSE
STARLINK-1086 3.3 19:30:16 10° WNW 19:33:19 53° SW 19:34:25 32° SSE
STARLINK-1143 3.9 19:29:27 10° WSW 19:33:29 65° NNW 19:37:08 12° NE
ARGOS 3.2 19:28:19 10° SSE 19:33:43 81° WSW 19:39:09 10° NNW
STARLINK-1095 3.4 19:30:42 10° WNW 19:33:45 52° SW 19:34:50 33° SSE
STARLINK-1077 3.4 19:31:08 10° WNW 19:34:12 52° SW 19:35:16 33° SSE
STARLINK-1075 3.4 19:31:37 10° WNW 19:34:39 51° SW 19:35:42 33° SSE
Meteor 1-24 Rocket 4.3 19:29:14 10° NNW 19:34:39 57° W 19:39:53 10° S
Cosmos 2251 Rocket 4.2 19:30:05 10° SSE 19:34:47 33° E 19:39:33 10° NE
SL-8 R/B 4.3 19:30:18 10° WNW 19:34:58 51° N 19:38:02 20° ENE
STARLINK-1093 3.4 19:32:02 10° WNW 19:35:06 51° SW 19:36:10 33° SSE
STARLINK-1074 3.4 19:32:28 10° WNW 19:35:33 51° SW 19:36:36 33° SSE
STARLINK-1110 3.5 19:31:43 10° WNW 19:35:45 85° SW 19:37:29 33° SE
STARLINK-1087 3.4 19:32:58 10° WNW 19:36:00 50° SW 19:37:00 33° SSE
STARLINK-1088 3.5 19:33:25 10° WNW 19:36:27 49° SW 19:37:26 34° SSE
STARLINK-1115 3.5 19:33:50 10° WNW 19:36:54 49° SW 19:37:55 33° SSE
STARLINK-1076 3.5 19:34:16 10° WNW 19:37:20 49° SW 19:38:20 33° SSE
STARLINK-1092 3.5 19:34:44 10° WNW 19:37:48 48° SW 19:38:47 34° SSE
STARLINK-1080 3.5 19:35:14 10° WNW 19:38:15 47° SW 19:39:10 34° S
SL-24 R/B 4.0 19:33:58 10° NNE 19:38:33 60° E 19:42:32 10° S
STARLINK-1090 3.5 19:35:40 10° WNW 19:38:41 47° SW 19:39:35 34° S
STARLINK-1089 3.6 19:36:08 10° WNW 19:39:09 46° SW 19:40:02 34° S
STARLINK-1107 3.6 19:36:35 10° WNW 19:39:36 46° SW 19:40:28 34° S
Cosmos 1470 2.6 19:36:46 10° S 19:40:38 86° E 19:44:32 10° N
STARLINK-1241 4.2 19:40:00 10° WSW 19:43:56 55° NNW 19:47:06 15° NE
Cosmos 2315 Rocket 4.0 19:38:28 10° S 19:44:47 86° W 19:51:11 10° N
SL-08 RB Rocket 3.7 19:40:53 13° S 19:44:54 82° WSW 19:49:29 10° NNW
STARLINK-1122 3.6 19:40:53 10° WNW 19:44:54 74° SW 19:46:17 39° SE
SJ-6B 3.3 19:42:03 10° S 19:46:03 61° W 19:50:08 10° NNW
MetOp-A 4.1 19:42:29 18° SSE 19:46:30 76° ENE 19:51:51 10° N
Resurs 1-3 3.5 19:44:44 30° SSE 19:46:49 66° ENE 19:51:11 10° N
ISS -2.4 19:44:22 10° NW 19:47:22 29° NNE 19:48:11 26° NE
Cosmos 1758 3.3 19:44:27 10° S 19:48:31 85° W 19:52:39 10° N
STARLINK-1239 4.3 19:44:36 10° WSW 19:48:32 52° NNW 19:51:30 16° NE
STARLINK-1114 4.4 19:45:24 10° NW 19:49:20 41° NNE 19:50:36 32° ENE
STARLINK-1126 3.6 19:45:31 10° WNW 19:49:32 68° SW 19:50:44 42° SSE
BREEZE-M DEB (TANK) 4.2 19:45:30 10° WNW 19:51:59 46° N 19:53:10 31° NE
BREEZE M DEB (TANK) 4.1 19:41:09 10° SW 19:52:25 43° SSE 19:53:49 35° ESE
CZ-2C R/B 3.8 19:47:32 10° S 19:52:29 50° W 19:57:14 10° NNW
STARLINK-1240 4.4 19:49:15 10° WSW 19:53:09 49° NNW 19:55:56 18° NE
IRIDIUM 104 4.2 19:48:08 10° N 19:53:22 68° E 19:56:26 25° SSE
STARLINK-1082 3.7 19:50:05 10° WNW 19:54:05 63° SW 19:55:08 44° SSE
Resurs 01 Rocket 1.7 19:53:04 42° ESE 19:54:12 55° ENE 19:58:31 10° N
STARLINK-1130 (DARKSAT) 4.3 19:50:21 10° NW 19:54:20 43° NNE 19:55:22 35° ENE
Abrixas rocket 3.7 19:52:54 10° SW 19:54:13 23° SSW 19:54:13 23° SSW
Cosmos 2369 Rocket 2.6 19:50:38 10° NNW 19:56:08 46° ENE 19:57:50 36° ESE
STARLINK-1216 4.5 19:53:55 10° W 19:57:48 46° NNW 20:00:23 19° NE
STARLINK-1100 3.9 19:54:40 10° WNW 19:58:38 58° SW 19:59:31 46° S
STARLINK-1084 4.2 19:55:19 10° NW 19:59:19 45° NNE 20:00:09 39° ENE
Meteor 2-15 Rocket 4.4 19:54:44 10° S 20:00:49 89° W 20:06:56 10° N
IRIDIUM 114 4.2 19:57:17 10° N 20:02:32 83° E 20:05:35 26° S
STARLINK-1083 3.9 19:59:17 10° WNW 20:03:14 54° SW 20:03:57 46° S
STARLINK-1098 4.1 20:00:17 10° NW 20:04:19 48° NNE 20:04:55 44° NE
SPOT 3 Rocket 3.8 20:00:43 17° S 20:04:43 69° WSW 20:09:57 10° NNW
Cosmos 1726 3.2 20:06:29 32° NE 20:06:29 32° NE 20:08:45 10° NNE
STARLINK-1125 4.0 20:03:56 10° WNW 20:07:51 49° SW 20:08:23 45° SSW
Nadezhda 1 Rocket 4.3 20:06:17 38° SE 20:07:54 45° E 20:13:55 10° NNE
Meteor 1-21 Rocket 4.1 20:03:21 10° N 20:08:57 86° E 20:11:31 33° SSE
Cosmos 2228 4.3 20:11:03 26° NE 20:11:03 26° NE 20:13:19 10° NNE
STARLINK-1123 4.0 20:05:17 10° NW 20:09:20 51° NNE 20:09:44 49° NE
IRIDIUM 103 4.3 20:06:28 10° N 20:11:43 83° W 20:14:45 26° S
STARLINK-1109 4.1 20:08:15 10° WNW 20:12:08 46° SW 20:12:32 44° SSW
MOS 1 Rocket 3.5 20:08:29 10° NNE 20:13:43 87° ESE 20:19:07 10° SSW
STARLINK-1097 3.9 20:10:14 10° NW 20:14:18 54° NNE 20:14:29 54° NE
STARLINK-1091 4.3 20:12:58 10° WNW 20:16:48 42° SW 20:17:02 41° SSW
Cosmos 1943 3.9 20:19:28 35° ENE 20:19:28 35° ENE 20:23:11 10° NE
Cosmos 292 Rocket 3.6 20:13:43 10° NNW 20:18:32 80° ENE 20:19:07 67° SE
STARLINK-1099 3.9 20:15:13 10° NW 20:19:17 58° NNE 20:19:17 58° NNE
Cosmos 1943 Rocket 2.0 20:15:53 10° NNW 20:21:27 89° WSW 20:22:51 53° SSE
Cosmos 2074 Rocket 3.9 20:17:48 10° N 20:24:07 88° ENE 20:26:45 38° S
STARLINK-1104 3.9 20:20:12 10° NW 20:24:04 60° N 20:24:04 60° N
STARLINK-1144 3.9 20:25:09 10° NW 20:28:50 60° N 20:28:50 60° N
Cosmos 1953 3.0 20:29:29 40° SW 20:30:29 51° WNW 20:34:23 10° N
Meteor 2-10 4.0 20:28:33 32° SSW 20:31:05 85° W 20:36:39 10° N
SPOT 1/Viking Rocket 4.1 20:32:06 44° NE 20:32:06 44° NE 20:36:36 10° N
NOSS 3-3 (A) 3.7 20:26:18 10° SSW 20:32:03 70° ESE 20:38:31 10° NE
NOSS 3-3 (C) 3.7 20:26:24 10° SSW 20:32:09 69° ESE 20:38:37 10° NE
Spot 2 Rocket 3.4 20:33:06 70° E 20:33:12 71° ENE 20:38:18 10° N
STARLINK-1103 4.1 20:30:07 10° NW 20:33:37 58° NNW 20:33:37 58° NNW
SL-16 R/B 3.8 20:29:25 10° WSW 20:34:33 35° NW 20:39:43 10° N
Cosmos 2084 Rocket 3.6 20:31:13 10° NW 20:35:19 74° NW 20:35:19 74° NW
Cosmos 1610 Rocket 4.3 20:31:54 10° N 20:38:10 75° E 20:39:04 64° SE
STARLINK-1101 4.2 20:35:06 10° NW 20:38:25 54° NW 20:38:25 54° NW
Aureole 2 Rocket 4.2 20:40:41 10° NNW 20:42:44 31° NW 20:42:44 31° NW
STARLINK-1102 4.4 20:40:05 10° NW 20:43:11 49° NW 20:43:11 49° NW
Terra 3.5 20:49:36 23° NNE 20:49:36 23° NNE 20:51:56 10° N
Cosmos 2341 Rocket 4.2 20:48:05 10° N 20:53:51 54° ENE 20:53:51 54° ENE
Meteor 1-16 Rocket 4.5 20:54:16 43° SW 20:55:49 61° WNW 21:01:13 10° N
Cosmos 1603 3.8 20:53:25 34° SW 20:55:55 75° WNW 21:01:34 10° NNE
ATLAS 2AS CENTAUR R/B 3.2 20:49:16 10° NNW 20:56:43 51° NE 20:57:41 48° ENE
USA 234 4.0 20:52:50 10° NE 20:59:05 50° NNW 21:05:20 10° W
MetOp-B 4.4 21:01:14 58° WSW 21:01:32 59° W 21:06:51 10° NNW
Aureole 1 Rocket 4.3 21:07:15 69° E 21:07:15 69° E 21:13:44 10° NNE
CZ-2C R/B 4.1 21:04:18 10° N 21:08:53 33° WNW 21:13:27 10° SW
COSMOS 2455 4.0 21:06:16 10° NNW 21:11:09 31° NE 21:11:09 31° NE
Meteor 1-11 4.4 21:06:40 10° NNW 21:12:06 71° WNW 21:12:06 71° WNW
Cosmos 1295 Rocket 4.5 21:10:38 10° N 21:16:48 77° W 21:16:48 77° W
Cosmos 1656 Rocket 4.2 21:18:03 10° NNW 21:22:37 58° NW 21:22:37 58° NW
ISS -0.2 21:21:04 10° WNW 21:21:09 11° WNW 21:21:09 11° WNW
ERS-1 Rocket 4.0 21:28:47 42° NNW 21:28:47 42° NNW 21:32:07 10° NNW
Resurs 01 Rocket 4.1 21:30:38 15° W 21:31:01 15° W 21:33:36 10° NW
Cosmos 2369 Rocket 3.7 21:35:07 10° NW 21:39:39 28° W 21:39:39 28° W
NOSS 3-4 (A) 4.3 22:08:04 10° NW 22:13:24 54° WNW 22:13:24 54° WNW
NOSS 3-4 (C) 4.3 22:08:09 10° NW 22:13:29 54° WNW 22:13:29 54° WNW
Terra 4.4 22:28:30 17° NW 22:28:30 17° NW 22:29:49 10° NNW
ATLAS 2AS CENTAUR R/B 4.1 22:40:40 10° NW 22:45:08 33° WNW 22:45:08 33° WNW
Cosmos 1980 Rocket 4.5 22:48:46 10° N 22:50:54 18° NNE 22:50:54 18° NNE
